User: anonymous
Location: Unspecified
(0.0000°N, 0.0000°E)
Time: 09:32:06
(UTC+02:00)
Language:

ATLAS 3B CENTAUR R/B - Orbit

View from above orbital plane
View from above orbital plane
View from above satellite
View from above satellite

Ground track
Ground track

The orbit data is extracted from the following two-line orbital elements,

1 28118U 03057B   14259.39107479  .00063719  00000-0  15441-2 0  7504
2 28118 028.1378 302.8284 3835968 041.8605 030.6370 07.81918758202708
Epoch (UTC): 16 September 2014 09:23:08
Eccentricity: 0.3835968
inclination: 28.1378°
perigee height: 231 km
apogee height: 8457 km
right ascension of ascending node: 302.8284°
argument of perigee: 41.8605°
revolutions per day: 7.81918758
mean anomaly at epoch: 30.6370°
orbit number at epoch: 20270

The dashed part of the orbit path shows where the satellite is in the earth's shadow,  

DLR